Regional Weather Roundup
Issued by NWS

Home | Current Version | Previous Version | Graphics & Text | Print | Product List | Glossary On
Versions: 1 2 3 4 5 6 7 8 9 10 11 12 13 14 15 16 17 18 19 20 21 22 23 24 25 26 27 28 29 30 31 32 33 34 35 36 37 38 39 40 41 42 43 44 45 46 47 48 49 50
000
ASUS45 KPSR 240110
RWRAZ

ARIZONA HOURLY REGIONAL WEATHER ROUNDUP
NATIONAL WEATHER SERVICE PHOENIX AZ
600 PM MST WED AUG 23 2017

NOTE: FAIR INDICATES FEW OR NO CLOUDS BELOW 12,000 FEET WITH NO
SIGNIFICANT WEATHER AND/OR OBSTRUCTIONS TO VISIBILITY.

AZZ001>003-036-240200-
NORTHWEST ARIZONA

CITY           SKY/WX    TMP DP  RH WIND       PRES   REMARKS
KINGMAN        SUNNY     95  46  18 W13       29.94S
$$

AZZ004>008-015-016-018-240200-
NORTH CENTRAL ARIZONA

CITY           SKY/WX    TMP DP  RH WIND       PRES   REMARKS
GRAND CANYON   MOSUNNY   75  54  47 CALM      30.21S
WILLIAMS       PTSUNNY   77  43  29 SW6       30.22S
PRESCOTT       MOSUNNY   86  46  24 SW12      30.08S
FLAGSTAFF      PTSUNNY   74  44  34 VRB6      30.24S
PAYSON           N/A     86  46  25 W13       30.10R
PAGE           MOSUNNY   93  39  15 VRB5      29.96F
$$

AZZ009>014-017-240200-
NORTHEAST ARIZONA

CITY           SKY/WX    TMP DP  RH WIND       PRES   REMARKS
WINSLOW        PTSUNNY   78  54  43 SE8       30.06F
SAINT JOHNS    CLOUDY    74  46  36 W25G38    30.14R
WINDOW ROCK    PTSUNNY   75  53  46 NW6       30.21S
SHOW LOW       CLOUDY    63  54  72 SE16G28   30.24R THUNDER
$$

AZZ540-542>544-546-548-240200-
GREATER PHOENIX AREA

CITY           SKY/WX    TMP DP  RH WIND       PRES   REMARKS
PHOENIX        CLOUDY   104  57  21 SW7       29.74F HX 103
BUCKEYE        MOSUNNY  100  70  37 S12       29.75R HX 107
GLENDALE       PTSUNNY  106  57  20 S9        29.76S HX 105
LUKE AFB       PTSUNNY  103  58  22 S9        29.73S HX 103
SCOTTSDALE     CLOUDY   102  55  20 SW6       29.79S HX 100
MESA-FALCON    MOSUNNY  102  57  22 S12       29.79S HX 101
MESA-GATEWAY   PTSUNNY   99  55  23 S8        29.80S
CHANDLER       PTSUNNY  100  57  23 S15       29.77F
$$

AZZ539-553-240200-
SOUTHWEST MARICOPA COUNTY AND PINAL COUNTY

CITY           SKY/WX    TMP DP  RH WIND       PRES   REMARKS
CASA GRANDE    LGT RAIN  88  66  48 S23       29.85R
GILA BEND      PTSUNNY   97  68  38 E14       29.73S HX 102
$$

AZZ503-504-507>509-240200-
SOUTHEAST ARIZONA

CITY           SKY/WX    TMP DP  RH WIND       PRES   REMARKS
TUCSON         RAIN      74  68  81 E16       30.03R
DAVIS-MONTHAN  RAIN      73  67  80 E15       30.02R
RYAN FIELD     SUNNY     75  64  69 MISG      29.97S
NOGALES        CLOUDY    68  67  96 N5        30.07F
SIERRA VISTA   TSTM      70  58  65 SE17G32   30.17R
DOUGLAS        RAIN      66  64  93 SE7       30.13R FOG
SAFFORD        CLOUDY    83  54  36 NW16      29.98R
$$

AZZ532-240200-
SOUTHWEST ARIZONA

CITY           SKY/WX    TMP DP  RH WIND       PRES   REMARKS
YUMA           SUNNY    104  58  21 S15       29.68F HX 104
$$

CAZ041-043-047-048-061-525>527-560>570-240200-
SOUTHERN CALIFORNIA

CITY           SKY/WX    TMP DP  RH WIND       PRES   REMARKS
DOWNTOWN L.A.  MOSUNNY   74  62  66 W7        29.89F
L.A. AIRPORT   PTSUNNY   69  62  78 W14       29.90S
SAN DIEGO      CLOUDY    69  61  75 NW5       29.93F
BURBANK        SUNNY     73  60  63 S10       29.88F
ONTARIO        MOSUNNY   80  60  50 W13       29.87F
RIVERSIDE      SUNNY     81  60  48 W14       29.87F
PALM SPRINGS   SUNNY    102  56  21 NW14G24   29.71F HX 101
EL CENTRO NAS  MOSUNNY  104  58  21 SE15      29.66F HX 104
IMPERIAL       PTSUNNY  105  62  24 SE16      29.64F HX 107
BLYTHE         SUNNY    106  58  20 S15       29.68F HX 106
$$

NVZ020-UTZ003-240200-
SOUTHERN NEVADA-UTAH

CITY           SKY/WX    TMP DP  RH WIND       PRES   REMARKS
LAS VEGAS      CLOUDY    88  54  31 W10       29.86F THUNDER
SALT LAKE CITY MOSUNNY   89  45  21 VRB3      30.01F
$$

NMZ009-TXZ055-240200-
NEW MEXICO-WEST TEXAS

CITY           SKY/WX    TMP DP  RH WIND       PRES   REMARKS
ALBUQUERQUE    CLOUDY    81  43  26 E9        30.12S
EL PASO        CLOUDY    77  58  51 N7        30.03F
$$


........................KEY........................
SKY/WX - SKY CONDITION/WEATHER
TMP    - TEMPERATURE IN FAHRENHEIT
DP     - DEW POINT IN FAHRENHEIT
RH     - RELATIVE HUMIDITY IN PERCENT
WIND   - DIRECTION AND SPEED IN MILES PER HOUR (MPH)
VRB    - VARIABLE WIND DIRECTION
PRES   - MEAN SEA LEVEL PRESSURE IN INCHES OF MERCURY
         F - FALLING PRESSURE   R - RISING PRESSURE
         S - STEADY PRESSURE
VSB    - VISIBILITY IN MILES
HX     - HEAT INDEX IN FAHRENHEIT
WCI    - WIND CHILL INDEX IN FAHRENHEIT
TC     - TEMPERATURE IN CELSIUS WHICH IS ALSO KNOWN AS
         TEMPERATURE IN CENTIGRADE
AFB    - AIR FORCE BASE
         LUKE AFB IS LUKE AIR FORCE BASE
         DAVIS-MONTHAN IS DAVIS-MONTHAN AIR FORCE BASE
NAS    - NAVAL AIR STATION
         EL CENTRO NAS IS EL CENTRO NAVAL AIR STATION
N/A    - NOT AVAILABLE




USA.gov is the U.S. government's official web portal to all federal, state and local government web resources and services.